Location: Grand Rapids
(42.9630°N, 85.6680°W)
Time: 05:57:34
(UTC-04:00)

Envisat - Pass Details

Date: 17 April 2024
Orbit: 762 x 764 km, 98.3° (Epoch: 10 September)

Event Time Altitude Azimuth Distance (km) Brightness Sun altitude
Rises 05:03:56 0° 14° (NNE) 3,237 7.0 -19.3°
Reaches altitude 10° 05:06:15 10° 15° (NNE) 2,306 6.2 -19.0°
Maximum altitude 05:11:21 82° 103° (ESE) 774 3.0 -18.2°
Enters shadow 05:14:56 20° 190° (S) 1,712 4.4 -17.7°
